TimeEST,TemperatureF,Dew PointF,Humidity,Sea Level PressureIn,VisibilityMPH,Wind Direction,Wind SpeedMPH,Gust SpeedMPH,PrecipitationIn,Events,Conditions,WindDirDegrees,DateUTC
12:54 AM,41.0,39.9,96,30.08,3.0,NNE,9.2,-,0.04,Rain,Light Rain,30,2011-11-09 05:54:00
1:54 AM,42.1,39.9,92,30.04,6.0,NE,8.1,-,0.03,Rain,Light Rain,40,2011-11-09 06:54:00
2:54 AM,42.1,39.9,92,30.04,10.0,NNE,8.1,-,0.00,,Overcast,30,2011-11-09 07:54:00
3:54 AM,42.1,41.0,96,30.00,10.0,NE,6.9,-,N/A,,Overcast,40,2011-11-09 08:54:00
4:54 AM,42.1,41.0,96,29.98,10.0,NE,6.9,-,0.00,Rain,Light Rain,40,2011-11-09 09:54:00
5:54 AM,43.0,41.0,93,29.96,10.0,NE,8.1,-,0.00,Rain,Light Rain,50,2011-11-09 10:54:00
6:54 AM,43.0,41.0,93,29.92,6.0,NE,9.2,-,0.13,Rain,Rain,40,2011-11-09 11:54:00
7:54 AM,43.0,42.1,97,29.90,9.0,NE,9.2,-,0.07,Rain,Light Rain,40,2011-11-09 12:54:00
8:54 AM,43.0,42.1,97,29.88,8.0,NE,9.2,-,0.08,Rain,Light Rain,50,2011-11-09 13:54:00
9:54 AM,44.1,42.1,93,29.83,9.0,NE,11.5,-,0.02,Rain,Light Rain,50,2011-11-09 14:54:00
10:54 AM,44.1,43.0,96,29.78,5.0,ENE,10.4,-,0.04,Rain,Rain,60,2011-11-09 15:54:00
11:06 AM,44.6,42.8,93,29.75,1.8,NE,12.7,-,0.05,Rain,Rain,40,2011-11-09 16:06:00
11:14 AM,44.6,42.8,93,29.72,3.0,NE,13.8,-,0.06,Rain,Light Rain,40,2011-11-09 16:14:00
11:39 AM,44.6,42.8,93,29.71,10.0,ENE,13.8,20.7,0.07,,Overcast,60,2011-11-09 16:39:00
11:54 AM,45.0,44.1,97,29.72,10.0,ENE,11.5,-,0.07,,Overcast,60,2011-11-09 16:54:00
12:13 PM,44.6,44.6,100,29.66,2.0,NE,9.2,-,N/A,,Overcast,50,2011-11-09 17:13:00
12:20 PM,44.6,44.6,100,29.66,0.8,NE,8.1,-,N/A,,Overcast,50,2011-11-09 17:20:00
12:33 PM,46.4,44.6,93,29.64,0.2,ENE,9.2,-,0.00,Fog-Rain,Light Rain,60,2011-11-09 17:33:00
12:54 PM,46.9,46.0,97,29.63,0.2,East,5.8,-,0.01,Fog-Rain,Light Rain,90,2011-11-09 17:54:00
1:19 PM,48.2,48.2,100,29.58,0.5,ESE,9.2,-,0.02,Fog-Rain,Light Rain,110,2011-11-09 18:19:00
1:25 PM,50.0,48.2,94,29.58,1.0,ESE,10.4,-,0.03,Rain,Light Rain,120,2011-11-09 18:25:00
1:54 PM,50.0,50.0,100,29.55,1.2,ESE,11.5,-,0.04,,Overcast,120,2011-11-09 18:54:00
2:54 PM,52.0,51.1,97,29.49,2.0,SE,12.7,-,0.03,Rain,Light Rain,130,2011-11-09 19:54:00
3:09 PM,51.8,51.8,100,29.47,2.0,SSE,15.0,21.9,0.00,Rain,Light Rain,150,2011-11-09 20:09:00
3:29 PM,53.6,51.8,94,29.46,10.0,SSE,15.0,-,0.00,Rain,Light Rain,150,2011-11-09 20:29:00
3:54 PM,54.0,52.0,93,29.46,10.0,SSE,10.4,-,0.00,,Overcast,150,2011-11-09 20:54:00
4:14 PM,53.6,53.6,100,29.43,10.0,SSE,10.4,-,0.01,,Overcast,150,2011-11-09 21:14:00
4:22 PM,53.6,53.6,100,29.43,10.0,SSE,11.5,-,0.01,,Overcast,160,2011-11-09 21:22:00
4:37 PM,55.4,53.6,94,29.42,10.0,SSE,12.7,-,0.01,,Overcast,160,2011-11-09 21:37:00
4:54 PM,55.0,53.1,93,29.42,10.0,SSE,13.8,-,0.01,,Overcast,160,2011-11-09 21:54:00
5:22 PM,55.4,53.6,94,29.39,10.0,SSE,12.7,-,N/A,,Overcast,160,2011-11-09 22:22:00
5:45 PM,55.4,53.6,94,29.38,10.0,SSE,17.3,25.3,0.01,,Overcast,160,2011-11-09 22:45:00
5:54 PM,55.9,53.1,90,29.39,10.0,SSE,19.6,28.8,0.01,,Overcast,160,2011-11-09 22:54:00
6:16 PM,55.4,51.8,88,29.38,10.0,South,19.6,27.6,N/A,,Overcast,170,2011-11-09 23:16:00
6:24 PM,55.4,51.8,88,29.39,10.0,South,19.6,28.8,N/A,,Mostly Cloudy,180,2011-11-09 23:24:00
6:54 PM,55.0,48.9,80,29.39,10.0,South,20.7,25.3,N/A,,Mostly Cloudy,180,2011-11-09 23:54:00
7:54 PM,51.1,42.1,71,29.40,10.0,SSW,15.0,34.5,N/A,,Mostly Cloudy,200,2011-11-10 00:54:00
8:54 PM,48.0,37.9,68,29.40,10.0,SSW,21.9,31.1,N/A,,Overcast,200,2011-11-10 01:54:00
9:22 PM,46.4,37.4,71,29.38,10.0,SSW,19.6,29.9,N/A,,Overcast,200,2011-11-10 02:22:00
9:54 PM,46.9,39.0,74,29.39,10.0,SSW,20.7,26.5,N/A,,Overcast,200,2011-11-10 02:54:00
10:54 PM,42.1,36.0,79,29.44,10.0,WSW,15.0,34.5,0.00,Rain,Light Rain,240,2011-11-10 03:54:00
11:54 PM,39.0,32.0,76,29.52,10.0,WSW,18.4,31.1,0.00,,Overcast,250,2011-11-10 04:54:00